ARG1335 SBFL-SACO

Flight info

Callsign ARG1335
Flight time 2h 26m
Altitude FL360
Route MUKA2B NESMI UZ75 IMBIM UM400 GEMOP GEMO1U
Aircraft B38M/M-SDE2E3FGHIRWXY/LB1

Departure

Time 2026-04-22 20:05
Airport Hercílio Luz International Airport (SBFL)

Arrival

Time 2026-04-22 22:31
Airport Ingeniero Aeronáutico Ambrosio L.V. Taravella International Airport (SACO)
Time Latitude Longitude Altitude Speed Heading
2026-04-22 19:26 -27.67289 -48.54543 27 ft 0 kts 209°
2026-04-22 19:55 -27.67285 -48.54540 26 ft 4 kts 214°
2026-04-22 19:55 -27.67267 -48.54527 26 ft 4 kts 199°
2026-04-22 19:55 -27.67246 -48.54528 26 ft 4 kts 138°
2026-04-22 19:55 -27.67232 -48.54547 26 ft 1 kts 123°
2026-04-22 19:56 -27.67230 -48.54550 26 ft 0 kts 123°
2026-04-22 20:00 -27.67300 -48.54418 26 ft 10 kts 112°
2026-04-22 20:00 -27.67265 -48.54354 26 ft 12 kts 34°
2026-04-22 20:01 -27.67219 -48.54292 26 ft 9 kts 98°
2026-04-22 20:01 -27.67250 -48.54221 28 ft 11 kts 121°
2026-04-22 20:01 -27.67296 -48.54136 28 ft 14 kts 121°
2026-04-22 20:01 -27.67351 -48.54034 30 ft 17 kts 121°
2026-04-22 20:02 -27.67416 -48.53914 27 ft 19 kts 121°
2026-04-22 20:02 -27.67489 -48.53778 26 ft 22 kts 121°
2026-04-22 20:02 -27.67572 -48.53626 27 ft 24 kts 121°
2026-04-22 20:02 -27.67662 -48.53458 27 ft 24 kts 121°
2026-04-22 20:03 -27.67734 -48.53326 27 ft 20 kts 121°
2026-04-22 20:03 -27.67802 -48.53198 27 ft 14 kts 120°
2026-04-22 20:03 -27.67795 -48.53123 29 ft 8 kts 41°
2026-04-22 20:03 -27.67755 -48.53093 28 ft 8 kts 30°
2026-04-22 20:04 -27.67699 -48.53067 27 ft 10 kts
2026-04-22 20:04 -27.67646 -48.53119 27 ft 13 kts 302°
2026-04-22 20:04 -27.67483 -48.53424 27 ft 81 kts 301°
2026-04-22 20:04 -27.67085 -48.54170 26 ft 139 kts 301°
2026-04-22 20:05 -27.66518 -48.55245 193 ft 165 kts 297°
2026-04-22 20:05 -27.66037 -48.56388 855 ft 167 kts 302°
2026-04-22 20:05 -27.65398 -48.57522 1338 ft 174 kts 304°
2026-04-22 20:05 -27.64737 -48.58693 1833 ft 186 kts 303°
2026-04-22 20:06 -27.64008 -48.60008 2163 ft 209 kts 302°
2026-04-22 20:06 -27.63196 -48.61495 2499 ft 238 kts 301°
2026-04-22 20:06 -27.62319 -48.63099 3289 ft 243 kts 299°
2026-04-22 20:06 -27.61403 -48.64781 3878 ft 262 kts 300°
2026-04-22 20:07 -27.60427 -48.66582 4516 ft 275 kts 300°
2026-04-22 20:07 -27.59430 -48.68419 5421 ft 277 kts 300°
2026-04-22 20:07 -27.58418 -48.70285 6273 ft 281 kts 300°
2026-04-22 20:07 -27.57398 -48.72166 7115 ft 283 kts 300°
2026-04-22 20:08 -27.56372 -48.74058 7962 ft 284 kts 300°
2026-04-22 20:08 -27.55339 -48.75961 8829 ft 286 kts 300°
2026-04-22 20:08 -27.54298 -48.77879 9648 ft 289 kts 300°
2026-04-22 20:08 -27.53250 -48.79816 10366 ft 294 kts 298°
2026-04-22 20:09 -27.52525 -48.82019 10693 ft 310 kts 278°
2026-04-22 20:09 -27.52152 -48.84476 11017 ft 328 kts 279°
2026-04-22 20:09 -27.51745 -48.87057 11447 ft 340 kts 278°
2026-04-22 20:09 -27.51335 -48.89683 12138 ft 343 kts 278°
2026-04-22 20:10 -27.50921 -48.92343 12819 ft 348 kts 278°
2026-04-22 20:10 -27.50502 -48.95035 13508 ft 352 kts 278°
2026-04-22 20:10 -27.50079 -48.97753 14156 ft 355 kts 278°
2026-04-22 20:10 -27.49651 -49.00499 14792 ft 358 kts 278°
2026-04-22 20:11 -27.49220 -49.03260 15439 ft 360 kts 278°
2026-04-22 20:11 -27.48785 -49.06039 16081 ft 362 kts 278°
2026-04-22 20:11 -27.48348 -49.08836 16703 ft 365 kts 278°
2026-04-22 20:11 -27.47907 -49.11649 17297 ft 368 kts 278°
2026-04-22 20:12 -27.47461 -49.14491 17883 ft 370 kts 278°
2026-04-22 20:12 -27.47012 -49.17346 18444 ft 373 kts 278°
2026-04-22 20:12 -27.46712 -49.19262 18764 ft 374 kts 278°
2026-04-22 20:12 -27.46105 -49.23114 19443 ft 376 kts 278°
2026-04-22 20:13 -27.45647 -49.26019 19957 ft 378 kts 278°
2026-04-22 20:13 -27.45186 -49.28935 20433 ft 380 kts 277°
2026-04-22 20:13 -27.44722 -49.31867 20926 ft 382 kts 278°
2026-04-22 20:13 -27.44257 -49.34804 21412 ft 383 kts 277°
2026-04-22 20:14 -27.43788 -49.37759 21885 ft 385 kts 277°
2026-04-22 20:14 -27.43317 -49.40727 22367 ft 387 kts 277°
2026-04-22 20:14 -27.42842 -49.43712 22828 ft 389 kts 277°
2026-04-22 20:14 -27.42365 -49.46708 23290 ft 391 kts 277°
2026-04-22 20:15 -27.41886 -49.49716 23728 ft 393 kts 277°
2026-04-22 20:15 -27.41487 -49.52746 24105 ft 392 kts 274°
2026-04-22 20:15 -27.41192 -49.55797 24515 ft 393 kts 274°
2026-04-22 20:15 -27.40882 -49.58847 24918 ft 394 kts 274°
2026-04-22 20:16 -27.40565 -49.61903 25316 ft 394 kts 274°
2026-04-22 20:16 -27.40244 -49.64963 25706 ft 395 kts 274°
2026-04-22 20:16 -27.39923 -49.68023 26089 ft 396 kts 274°
2026-04-22 20:16 -27.39599 -49.71094 26472 ft 396 kts 274°
2026-04-22 20:17 -27.39273 -49.74170 26836 ft 397 kts 274°
2026-04-22 20:17 -27.38947 -49.77254 27204 ft 398 kts 274°
2026-04-22 20:17 -27.38619 -49.80343 27553 ft 399 kts 274°
2026-04-22 20:17 -27.38290 -49.83433 27897 ft 399 kts 274°
2026-04-22 20:18 -27.37960 -49.86529 28245 ft 400 kts 274°
2026-04-22 20:18 -27.37628 -49.89634 28542 ft 402 kts 274°
2026-04-22 20:18 -27.37294 -49.92752 28842 ft 403 kts 274°
2026-04-22 20:18 -27.36958 -49.95883 29154 ft 404 kts 274°
2026-04-22 20:19 -27.36621 -49.99019 29457 ft 405 kts 275°
2026-04-22 20:19 -27.36448 -50.02171 29727 ft 404 kts 264°
2026-04-22 20:19 -27.36733 -50.05305 30001 ft 405 kts 264°
2026-04-22 20:19 -27.36989 -50.08463 30217 ft 407 kts 264°
2026-04-22 20:20 -27.37256 -50.11630 30446 ft 408 kts 264°
2026-04-22 20:20 -27.37528 -50.14802 30663 ft 410 kts 264°
2026-04-22 20:20 -27.37802 -50.17991 30883 ft 411 kts 264°
2026-04-22 20:20 -27.38078 -50.21193 31090 ft 412 kts 263°
2026-04-22 20:21 -27.38354 -50.24398 31322 ft 413 kts 264°
2026-04-22 20:21 -27.38629 -50.27605 31632 ft 412 kts 263°
2026-04-22 20:21 -27.38902 -50.30803 31948 ft 411 kts 264°
2026-04-22 20:21 -27.39174 -50.33985 32258 ft 410 kts 263°
2026-04-22 20:22 -27.39444 -50.37169 32559 ft 409 kts 263°
2026-04-22 20:22 -27.39713 -50.40342 32875 ft 408 kts 264°
2026-04-22 20:22 -27.39981 -50.43502 33203 ft 406 kts 264°
2026-04-22 20:22 -27.40246 -50.46656 33528 ft 405 kts 264°
2026-04-22 20:23 -27.40511 -50.49801 33853 ft 404 kts 263°
2026-04-22 20:23 -27.40774 -50.52933 34164 ft 402 kts 263°
2026-04-22 20:23 -27.41035 -50.56057 34430 ft 401 kts 264°
2026-04-22 20:23 -27.41296 -50.59180 34681 ft 401 kts 264°
2026-04-22 20:24 -27.41483 -50.62299 34929 ft 401 kts 271°
2026-04-22 20:24 -27.41128 -50.65404 35203 ft 401 kts 275°
2026-04-22 20:24 -27.40761 -50.68510 35396 ft 401 kts 275°
2026-04-22 20:24 -27.40381 -50.71609 35626 ft 401 kts 276°
2026-04-22 20:25 -27.39989 -50.74707 35845 ft 400 kts 276°
2026-04-22 20:25 -27.39591 -50.77794 36038 ft 400 kts 276°
2026-04-22 20:25 -27.39190 -50.80891 36088 ft 400 kts 276°
2026-04-22 20:26 -27.38380 -50.87049 36082 ft 398 kts 276°
2026-04-22 20:26 -27.37566 -50.93193 36083 ft 398 kts 276°
2026-04-22 20:27 -27.36748 -50.99344 36081 ft 398 kts 276°
2026-04-22 20:27 -27.35928 -51.05494 36083 ft 398 kts 276°
2026-04-22 20:28 -27.35105 -51.11642 36083 ft 398 kts 276°
2026-04-22 20:28 -27.34280 -51.17789 36083 ft 398 kts 276°
2026-04-22 20:29 -27.33454 -51.23935 36081 ft 399 kts 276°
2026-04-22 20:29 -27.32626 -51.30085 36083 ft 399 kts 276°
2026-04-22 20:30 -27.31796 -51.36231 36080 ft 398 kts 277°
2026-04-22 20:30 -27.30962 -51.42383 36087 ft 399 kts 277°
2026-04-22 20:31 -27.30126 -51.48528 36088 ft 399 kts 277°
2026-04-22 20:31 -27.29287 -51.54681 36087 ft 399 kts 277°
2026-04-22 20:32 -27.28444 -51.60837 36084 ft 399 kts 277°
2026-04-22 20:32 -27.27600 -51.66986 36092 ft 399 kts 277°
2026-04-22 20:33 -27.26751 -51.73142 36085 ft 399 kts 277°
2026-04-22 20:33 -27.25900 -51.79298 36091 ft 399 kts 277°
2026-04-22 20:34 -27.25048 -51.85440 36086 ft 398 kts 277°
2026-04-22 20:34 -27.24194 -51.91576 36091 ft 398 kts 277°
2026-04-22 20:35 -27.23338 -51.97715 36090 ft 399 kts 277°
2026-04-22 20:35 -27.23007 -52.03858 36074 ft 395 kts 258°
2026-04-22 20:36 -27.24839 -52.09687 36073 ft 399 kts 251°
2026-04-22 20:36 -27.26963 -52.15455 36084 ft 400 kts 250°
2026-04-22 20:37 -27.29146 -52.21192 36079 ft 400 kts 249°
2026-04-22 20:37 -27.31343 -52.26916 36084 ft 399 kts 250°
2026-04-22 20:38 -27.33539 -52.32637 36075 ft 399 kts 250°
2026-04-22 20:38 -27.35735 -52.38365 36089 ft 400 kts 250°
2026-04-22 20:39 -27.37927 -52.44093 36091 ft 399 kts 250°
2026-04-22 20:39 -27.40115 -52.49820 36097 ft 399 kts 250°
2026-04-22 20:40 -27.42295 -52.55531 36093 ft 398 kts 250°
2026-04-22 20:40 -27.44480 -52.61261 36089 ft 400 kts 250°
2026-04-22 20:41 -27.46663 -52.66993 36089 ft 399 kts 250°
2026-04-22 20:41 -27.48843 -52.72726 36087 ft 399 kts 250°
2026-04-22 20:42 -27.51019 -52.78455 36080 ft 399 kts 250°
2026-04-22 20:42 -27.53191 -52.84191 36080 ft 399 kts 250°
2026-04-22 20:43 -27.55361 -52.89933 36080 ft 399 kts 250°
2026-04-22 20:43 -27.57527 -52.95672 36077 ft 399 kts 250°
2026-04-22 20:44 -27.59694 -53.01424 36073 ft 399 kts 250°
2026-04-22 20:44 -27.61859 -53.07173 36078 ft 399 kts 250°
2026-04-22 20:45 -27.64024 -53.12931 36077 ft 400 kts 250°
2026-04-22 20:45 -27.66186 -53.18687 36075 ft 400 kts 250°
2026-04-22 20:46 -27.69428 -53.27339 36078 ft 400 kts 250°
2026-04-22 20:46 -27.71588 -53.33113 36077 ft 400 kts 251°
2026-04-22 20:47 -27.73746 -53.38891 36079 ft 400 kts 251°
2026-04-22 20:47 -27.75900 -53.44668 36077 ft 400 kts 251°
2026-04-22 20:48 -27.78053 -53.50449 36080 ft 400 kts 251°
2026-04-22 20:48 -27.80204 -53.56233 36079 ft 400 kts 251°
2026-04-22 20:49 -27.82352 -53.62019 36075 ft 400 kts 251°
2026-04-22 20:49 -27.84495 -53.67800 36077 ft 400 kts 251°
2026-04-22 20:50 -27.86638 -53.73591 36068 ft 400 kts 251°
2026-04-22 20:50 -27.88777 -53.79378 36076 ft 400 kts 251°
2026-04-22 20:51 -27.90916 -53.85174 36068 ft 400 kts 251°
2026-04-22 20:51 -27.93046 -53.90956 36073 ft 399 kts 251°
2026-04-22 20:52 -27.95175 -53.96745 36071 ft 399 kts 251°
2026-04-22 20:52 -27.97299 -54.02527 36069 ft 399 kts 251°
2026-04-22 20:53 -27.99421 -54.08311 36070 ft 399 kts 251°
2026-04-22 20:53 -28.01538 -54.14093 36060 ft 399 kts 251°
2026-04-22 20:54 -28.03652 -54.19877 36062 ft 398 kts 251°
2026-04-22 20:54 -28.05764 -54.25663 36063 ft 398 kts 252°
2026-04-22 20:55 -28.07873 -54.31447 36060 ft 398 kts 252°
2026-04-22 20:55 -28.09980 -54.37236 36058 ft 398 kts 252°
2026-04-22 20:56 -28.12080 -54.43015 36060 ft 397 kts 252°
2026-04-22 20:56 -28.14176 -54.48792 36052 ft 397 kts 252°
2026-04-22 20:57 -28.16269 -54.54570 36052 ft 397 kts 252°
2026-04-22 20:57 -28.18359 -54.60347 36055 ft 397 kts 252°
2026-04-22 20:58 -28.20445 -54.66118 36051 ft 396 kts 252°
2026-04-22 20:58 -28.22528 -54.71893 36050 ft 396 kts 252°
2026-04-22 20:59 -28.24605 -54.77671 36046 ft 396 kts 252°
2026-04-22 20:59 -28.26679 -54.83446 36049 ft 396 kts 252°
2026-04-22 21:00 -28.28752 -54.89221 36051 ft 396 kts 252°
2026-04-22 21:00 -28.30819 -54.94992 36046 ft 396 kts 252°
2026-04-22 21:01 -28.32886 -55.00770 36045 ft 396 kts 252°
2026-04-22 21:01 -28.34948 -55.06544 36043 ft 395 kts 252°
2026-04-22 21:02 -28.37004 -55.12310 36050 ft 395 kts 252°
2026-04-22 21:02 -28.39060 -55.18083 36051 ft 395 kts 252°
2026-04-22 21:03 -28.41110 -55.23853 36044 ft 395 kts 252°
2026-04-22 21:03 -28.43158 -55.29621 36047 ft 394 kts 253°
2026-04-22 21:04 -28.45201 -55.35389 36047 ft 394 kts 253°
2026-04-22 21:04 -28.47242 -55.41157 36048 ft 394 kts 253°
2026-04-22 21:05 -28.49280 -55.46927 36048 ft 394 kts 253°
2026-04-22 21:05 -28.51315 -55.52696 36047 ft 394 kts 253°
2026-04-22 21:06 -28.53345 -55.58462 36043 ft 394 kts 253°
2026-04-22 21:06 -28.55373 -55.64228 36050 ft 393 kts 253°
2026-04-22 21:07 -28.57397 -55.69998 36050 ft 393 kts 253°
2026-04-22 21:07 -28.59417 -55.75763 36050 ft 393 kts 253°
2026-04-22 21:08 -28.61434 -55.81526 36051 ft 393 kts 253°
2026-04-22 21:08 -28.63451 -55.87302 36053 ft 393 kts 253°
2026-04-22 21:09 -28.65464 -55.93074 36046 ft 393 kts 253°
2026-04-22 21:09 -28.67474 -55.98847 36051 ft 393 kts 253°
2026-04-22 21:10 -28.69482 -56.04621 36053 ft 393 kts 253°
2026-04-22 21:10 -28.71483 -56.10389 36054 ft 392 kts 253°
2026-04-22 21:11 -28.73519 -56.16151 36058 ft 393 kts 253°
2026-04-22 21:11 -28.75582 -56.21902 36052 ft 393 kts 253°
2026-04-22 21:12 -28.77639 -56.27654 36051 ft 393 kts 253°
2026-04-22 21:12 -28.79692 -56.33404 36052 ft 392 kts 253°
2026-04-22 21:13 -28.81742 -56.39155 36061 ft 392 kts 253°
2026-04-22 21:13 -28.83788 -56.44906 36058 ft 392 kts 253°
2026-04-22 21:14 -28.85831 -56.50655 36058 ft 392 kts 253°
2026-04-22 21:14 -28.87873 -56.56402 36060 ft 391 kts 253°
2026-04-22 21:15 -28.89912 -56.62145 36062 ft 391 kts 253°
2026-04-22 21:15 -28.91946 -56.67887 36059 ft 391 kts 253°
2026-04-22 21:16 -28.93976 -56.73624 36062 ft 390 kts 253°
2026-04-22 21:16 -28.96000 -56.79354 36058 ft 390 kts 253°
2026-04-22 21:17 -28.98022 -56.85087 36057 ft 390 kts 254°
2026-04-22 21:17 -29.00038 -56.90810 36060 ft 389 kts 254°
2026-04-22 21:18 -29.02051 -56.96536 36065 ft 389 kts 254°
2026-04-22 21:18 -29.04060 -57.02260 36064 ft 389 kts 254°
2026-04-22 21:19 -29.06065 -57.07980 36064 ft 388 kts 254°
2026-04-22 21:19 -29.08065 -57.13695 36064 ft 388 kts 254°
2026-04-22 21:20 -29.10062 -57.19411 36063 ft 388 kts 254°
2026-04-22 21:20 -29.12054 -57.25123 36067 ft 387 kts 254°
2026-04-22 21:21 -29.14041 -57.30831 36066 ft 387 kts 254°
2026-04-22 21:21 -29.16026 -57.36538 36070 ft 387 kts 254°
2026-04-22 21:22 -29.18005 -57.42241 36062 ft 386 kts 254°
2026-04-22 21:22 -29.19982 -57.47944 36072 ft 386 kts 254°
2026-04-22 21:23 -29.21953 -57.53639 36072 ft 386 kts 255°
2026-04-22 21:23 -29.23921 -57.59334 36076 ft 385 kts 255°
2026-04-22 21:24 -29.26005 -57.64979 36078 ft 386 kts 253°
2026-04-22 21:24 -29.28112 -57.70616 36077 ft 385 kts 253°
2026-04-22 21:25 -29.30208 -57.76246 36077 ft 385 kts 253°
2026-04-22 21:25 -29.32300 -57.81873 36082 ft 384 kts 253°
2026-04-22 21:26 -29.34387 -57.87497 36081 ft 384 kts 253°
2026-04-22 21:26 -29.36471 -57.93120 36081 ft 384 kts 253°
2026-04-22 21:27 -29.38550 -57.98740 36078 ft 383 kts 253°
2026-04-22 21:27 -29.40625 -58.04355 36087 ft 383 kts 254°
2026-04-22 21:28 -29.42564 -58.10008 36082 ft 381 kts 256°
2026-04-22 21:28 -29.44400 -58.15688 36088 ft 381 kts 256°
2026-04-22 21:29 -29.46245 -58.21368 36082 ft 380 kts 256°
2026-04-22 21:29 -29.48086 -58.27042 36087 ft 380 kts 256°
2026-04-22 21:30 -29.49925 -58.32718 36087 ft 380 kts 256°
2026-04-22 21:30 -29.51760 -58.38393 36085 ft 380 kts 256°
2026-04-22 21:31 -29.53594 -58.44070 36086 ft 380 kts 256°
2026-04-22 21:31 -29.55424 -58.49747 36094 ft 380 kts 256°
2026-04-22 21:32 -29.57250 -58.55422 36091 ft 380 kts 256°
2026-04-22 21:32 -29.59075 -58.61102 36096 ft 380 kts 256°
2026-04-22 21:33 -29.60897 -58.66782 36091 ft 379 kts 257°
2026-04-22 21:33 -29.62716 -58.72463 36098 ft 379 kts 257°
2026-04-22 21:34 -29.64533 -58.78145 36093 ft 379 kts 257°
2026-04-22 21:34 -29.66346 -58.83825 36099 ft 379 kts 257°
2026-04-22 21:35 -29.68185 -58.89505 36101 ft 380 kts 256°
2026-04-22 21:35 -29.70073 -58.95171 36099 ft 380 kts 256°
2026-04-22 21:36 -29.71951 -59.00835 36104 ft 380 kts 256°
2026-04-22 21:36 -29.73828 -59.06504 36106 ft 380 kts 256°
2026-04-22 21:37 -29.75700 -59.12167 36108 ft 379 kts 256°
2026-04-22 21:37 -29.77569 -59.17832 36110 ft 379 kts 256°
2026-04-22 21:38 -29.79436 -59.23501 36112 ft 379 kts 257°
2026-04-22 21:38 -29.81299 -59.29165 36111 ft 379 kts 257°
2026-04-22 21:39 -29.83159 -59.34831 36114 ft 379 kts 257°
2026-04-22 21:39 -29.85015 -59.40493 36118 ft 378 kts 257°
2026-04-22 21:40 -29.86867 -59.46153 36119 ft 378 kts 257°
2026-04-22 21:40 -29.88716 -59.51812 36123 ft 378 kts 257°
2026-04-22 21:41 -29.90562 -59.57471 36125 ft 378 kts 257°
2026-04-22 21:41 -29.92404 -59.63129 36126 ft 378 kts 257°
2026-04-22 21:42 -29.94241 -59.68781 36129 ft 377 kts 257°
2026-04-22 21:42 -29.96075 -59.74433 36132 ft 377 kts 257°
2026-04-22 21:43 -29.97906 -59.80084 36131 ft 376 kts 257°
2026-04-22 21:43 -29.99730 -59.85725 36136 ft 376 kts 257°
2026-04-22 21:44 -30.01550 -59.91363 36140 ft 376 kts 257°
2026-04-22 21:44 -30.03367 -59.97000 36138 ft 375 kts 257°
2026-04-22 21:45 -30.05179 -60.02630 36139 ft 375 kts 258°
2026-04-22 21:45 -30.06988 -60.08264 36144 ft 375 kts 258°
2026-04-22 21:46 -30.08793 -60.13893 36148 ft 374 kts 258°
2026-04-22 21:46 -30.10596 -60.19524 36128 ft 374 kts 258°
2026-04-22 21:47 -30.12393 -60.25146 36151 ft 374 kts 258°
2026-04-22 21:47 -30.14189 -60.30774 36167 ft 374 kts 258°
2026-04-22 21:48 -30.15980 -60.36393 36139 ft 373 kts 258°
2026-04-22 21:48 -30.17769 -60.42020 36147 ft 374 kts 258°
2026-04-22 21:49 -30.19554 -60.47640 36190 ft 373 kts 258°
2026-04-22 21:49 -30.21336 -60.53259 36138 ft 372 kts 258°
2026-04-22 21:50 -30.23116 -60.58883 36158 ft 373 kts 258°
2026-04-22 21:50 -30.24893 -60.64502 36152 ft 373 kts 258°
2026-04-22 21:51 -30.26667 -60.70125 36159 ft 373 kts 258°
2026-04-22 21:52 -30.29323 -60.78561 36167 ft 373 kts 258°
2026-04-22 21:52 -30.31091 -60.84187 36163 ft 373 kts 258°
2026-04-22 21:53 -30.32858 -60.89820 36168 ft 373 kts 258°
2026-04-22 21:53 -30.34621 -60.95452 36169 ft 373 kts 258°
2026-04-22 21:54 -30.36384 -61.01089 36166 ft 373 kts 258°
2026-04-22 21:54 -30.38144 -61.06727 36169 ft 373 kts 258°
2026-04-22 21:55 -30.39907 -61.12365 36166 ft 373 kts 259°
2026-04-22 21:55 -30.41669 -61.18010 36168 ft 373 kts 259°
2026-04-22 21:56 -30.43428 -61.23654 36181 ft 373 kts 259°
2026-04-22 21:56 -30.45186 -61.29302 36171 ft 373 kts 259°
2026-04-22 21:57 -30.46940 -61.34952 36175 ft 373 kts 259°
2026-04-22 21:57 -30.48692 -61.40601 36171 ft 373 kts 259°
2026-04-22 21:58 -30.50440 -61.46249 36172 ft 373 kts 259°
2026-04-22 21:58 -30.52186 -61.51900 36173 ft 373 kts 259°
2026-04-22 21:59 -30.53927 -61.57550 36175 ft 373 kts 259°
2026-04-22 21:59 -30.55665 -61.63197 36171 ft 372 kts 259°
2026-04-22 22:00 -30.57393 -61.68848 36173 ft 372 kts 259°
2026-04-22 22:00 -30.59111 -61.74497 36172 ft 372 kts 259°
2026-04-22 22:01 -30.60827 -61.80149 36173 ft 372 kts 259°
2026-04-22 22:01 -30.62541 -61.85804 36175 ft 372 kts 259°
2026-04-22 22:02 -30.64250 -61.91454 36171 ft 371 kts 259°
2026-04-22 22:02 -30.65955 -61.97099 36180 ft 371 kts 260°
2026-04-22 22:03 -30.67659 -62.02749 36181 ft 371 kts 259°
2026-04-22 22:03 -30.69359 -62.08399 36182 ft 371 kts 260°
2026-04-22 22:03 -30.70200 -62.11197 35835 ft 365 kts 260°
2026-04-22 22:04 -30.71027 -62.13952 35417 ft 360 kts 260°
2026-04-22 22:04 -30.71844 -62.16675 34990 ft 355 kts 260°
2026-04-22 22:04 -30.72653 -62.19375 34514 ft 353 kts 260°
2026-04-22 22:04 -30.73458 -62.22063 33990 ft 352 kts 260°
2026-04-22 22:05 -30.74260 -62.24739 33443 ft 351 kts 260°
2026-04-22 22:05 -30.75055 -62.27399 32933 ft 348 kts 260°
2026-04-22 22:05 -30.75845 -62.30045 32442 ft 346 kts 260°
2026-04-22 22:05 -30.76629 -62.32669 31978 ft 343 kts 259°
2026-04-22 22:06 -30.77407 -62.35277 31499 ft 341 kts 259°
2026-04-22 22:06 -30.78184 -62.37876 31008 ft 341 kts 259°
2026-04-22 22:06 -30.78965 -62.40476 30481 ft 341 kts 259°
2026-04-22 22:06 -30.79743 -62.43066 30004 ft 339 kts 259°
2026-04-22 22:07 -30.80517 -62.45646 29501 ft 337 kts 258°
2026-04-22 22:07 -30.81283 -62.48206 29033 ft 335 kts 258°
2026-04-22 22:07 -30.82045 -62.50750 28580 ft 332 kts 258°
2026-04-22 22:07 -30.82801 -62.53275 28126 ft 330 kts 258°
2026-04-22 22:08 -30.83552 -62.55787 27684 ft 328 kts 258°
2026-04-22 22:08 -30.84297 -62.58283 27245 ft 327 kts 258°
2026-04-22 22:08 -30.85041 -62.60774 26813 ft 325 kts 258°
2026-04-22 22:08 -30.85779 -62.63250 26390 ft 324 kts 258°
2026-04-22 22:09 -30.86516 -62.65722 25964 ft 323 kts 257°
2026-04-22 22:09 -30.87250 -62.68187 25548 ft 323 kts 257°
2026-04-22 22:09 -30.87982 -62.70647 25140 ft 322 kts 257°
2026-04-22 22:09 -30.88712 -62.73104 24723 ft 322 kts 257°
2026-04-22 22:10 -30.89440 -62.75554 24326 ft 321 kts 257°
2026-04-22 22:10 -30.90168 -62.78008 23920 ft 321 kts 257°
2026-04-22 22:10 -30.90895 -62.80459 23484 ft 321 kts 256°
2026-04-22 22:10 -30.91622 -62.82911 23042 ft 320 kts 256°
2026-04-22 22:11 -30.92343 -62.85347 22652 ft 318 kts 256°
2026-04-22 22:11 -30.93059 -62.87766 22272 ft 316 kts 256°
2026-04-22 22:11 -30.93770 -62.90171 21904 ft 313 kts 256°
2026-04-22 22:11 -30.94476 -62.92558 21542 ft 311 kts 256°
2026-04-22 22:12 -30.95182 -62.94953 21177 ft 316 kts 255°
2026-04-22 22:12 -30.95899 -62.97385 20804 ft 321 kts 255°
2026-04-22 22:12 -30.96625 -62.99845 20453 ft 322 kts 255°
2026-04-22 22:12 -30.97348 -63.02303 20095 ft 321 kts 255°
2026-04-22 22:13 -30.98071 -63.04758 19748 ft 320 kts 255°
2026-04-22 22:13 -30.98791 -63.07206 19394 ft 320 kts 255°
2026-04-22 22:13 -30.99509 -63.09648 19047 ft 319 kts 254°
2026-04-22 22:13 -31.00224 -63.12084 18700 ft 318 kts 254°
2026-04-22 22:14 -31.00938 -63.14518 18327 ft 317 kts 254°
2026-04-22 22:14 -31.01646 -63.16934 17944 ft 315 kts 254°
2026-04-22 22:14 -31.02308 -63.19349 17553 ft 312 kts 259°
2026-04-22 22:14 -31.02805 -63.21791 17206 ft 309 kts 258°
2026-04-22 22:15 -31.03309 -63.24207 16875 ft 306 kts 258°
2026-04-22 22:15 -31.03815 -63.26601 16543 ft 303 kts 258°
2026-04-22 22:15 -31.04320 -63.28972 16216 ft 301 kts 258°
2026-04-22 22:15 -31.04823 -63.31322 15895 ft 298 kts 258°
2026-04-22 22:16 -31.05322 -63.33654 15571 ft 296 kts 258°
2026-04-22 22:16 -31.05817 -63.35967 15250 ft 294 kts 258°
2026-04-22 22:16 -31.06308 -63.38264 14932 ft 292 kts 258°
2026-04-22 22:16 -31.06793 -63.40545 14620 ft 289 kts 259°
2026-04-22 22:17 -31.06979 -63.42865 14268 ft 289 kts 270°
2026-04-22 22:17 -31.07013 -63.45223 13952 ft 294 kts 269°
2026-04-22 22:17 -31.07054 -63.47613 13595 ft 297 kts 269°
2026-04-22 22:17 -31.07096 -63.50017 13265 ft 297 kts 269°
2026-04-22 22:18 -31.07138 -63.52419 12939 ft 297 kts 269°
2026-04-22 22:18 -31.07180 -63.54817 12627 ft 296 kts 269°
2026-04-22 22:18 -31.07222 -63.57211 12307 ft 294 kts 269°
2026-04-22 22:18 -31.07262 -63.59584 11992 ft 292 kts 269°
2026-04-22 22:19 -31.07303 -63.61936 11679 ft 290 kts 269°
2026-04-22 22:19 -31.07342 -63.64270 11368 ft 288 kts 269°
2026-04-22 22:19 -31.07380 -63.66589 11064 ft 286 kts 269°
2026-04-22 22:19 -31.07419 -63.68894 10779 ft 284 kts 269°
2026-04-22 22:20 -31.07456 -63.71165 10631 ft 277 kts 269°
2026-04-22 22:20 -31.07491 -63.73379 10487 ft 270 kts 269°
2026-04-22 22:20 -31.07526 -63.75531 10342 ft 264 kts 269°
2026-04-22 22:20 -31.07559 -63.77667 9984 ft 265 kts 269°
2026-04-22 22:21 -31.07593 -63.79821 9599 ft 266 kts 269°
2026-04-22 22:21 -31.07626 -63.81971 9277 ft 265 kts 269°
2026-04-22 22:21 -31.07659 -63.84113 8982 ft 264 kts 269°
2026-04-22 22:21 -31.07691 -63.86238 8695 ft 262 kts 269°
2026-04-22 22:22 -31.07723 -63.88345 8418 ft 259 kts 269°
2026-04-22 22:22 -31.07754 -63.90434 8142 ft 257 kts 269°
2026-04-22 22:22 -31.07784 -63.92515 7867 ft 258 kts 269°
2026-04-22 22:22 -31.07814 -63.94628 7576 ft 264 kts 269°
2026-04-22 22:23 -31.07845 -63.96780 7289 ft 267 kts 269°
2026-04-22 22:23 -31.07875 -63.98944 7011 ft 268 kts 269°
2026-04-22 22:23 -31.07906 -64.01092 6832 ft 261 kts 269°
2026-04-22 22:23 -31.07934 -64.03172 6708 ft 253 kts 269°
2026-04-22 22:24 -31.07962 -64.05186 6578 ft 245 kts 269°
2026-04-22 22:24 -31.07988 -64.07130 6448 ft 236 kts 269°
2026-04-22 22:24 -31.08014 -64.08983 6417 ft 223 kts 268°
2026-04-22 22:24 -31.08089 -64.10748 6281 ft 214 kts 266°
2026-04-22 22:25 -31.08174 -64.12447 6144 ft 208 kts 266°
2026-04-22 22:25 -31.08255 -64.14135 6036 ft 210 kts 266°
2026-04-22 22:25 -31.08339 -64.15836 5888 ft 212 kts 265°
2026-04-22 22:25 -31.08430 -64.17585 5418 ft 221 kts 265°
2026-04-22 22:26 -31.08625 -64.19366 4978 ft 221 kts 247°
2026-04-22 22:26 -31.09550 -64.20681 4803 ft 205 kts 210°
2026-04-22 22:26 -31.10819 -64.21137 4803 ft 182 kts 183°
2026-04-22 22:26 -31.12005 -64.21146 4780 ft 161 kts 179°
2026-04-22 22:27 -31.13112 -64.21125 4642 ft 162 kts 179°
2026-04-22 22:27 -31.14261 -64.21105 4498 ft 168 kts 179°
2026-04-22 22:27 -31.15431 -64.21085 4300 ft 169 kts 179°
2026-04-22 22:27 -31.16587 -64.21067 4085 ft 163 kts 179°
2026-04-22 22:28 -31.17705 -64.21050 3920 ft 160 kts 179°
2026-04-22 22:28 -31.18814 -64.21031 3761 ft 160 kts 179°
2026-04-22 22:28 -31.19924 -64.21013 3582 ft 159 kts 179°
2026-04-22 22:28 -31.21023 -64.20995 3390 ft 156 kts 179°
2026-04-22 22:29 -31.22099 -64.20978 3191 ft 154 kts 178°
2026-04-22 22:29 -31.23168 -64.20960 2998 ft 154 kts 178°
2026-04-22 22:29 -31.24240 -64.20944 2778 ft 154 kts 178°
2026-04-22 22:29 -31.25304 -64.20927 2541 ft 153 kts 179°
2026-04-22 22:30 -31.26362 -64.20909 2304 ft 152 kts 178°
2026-04-22 22:30 -31.27415 -64.20892 2093 ft 151 kts 178°
2026-04-22 22:30 -31.28460 -64.20875 1868 ft 151 kts 178°
2026-04-22 22:30 -31.29499 -64.20847 1630 ft 146 kts 179°
2026-04-22 22:31 -31.30385 -64.20838 1622 ft 99 kts 179°
2026-04-22 22:31 -31.30829 -64.20837 1616 ft 32 kts 180°
2026-04-22 22:31 -31.30911 -64.20836 1619 ft 8 kts 180°
2026-04-22 22:31 -31.30989 -64.20835 1620 ft 12 kts 179°
2026-04-22 22:32 -31.31094 -64.20834 1619 ft 18 kts 179°
2026-04-22 22:32 -31.31211 -64.20833 1618 ft 13 kts 179°
2026-04-22 22:32 -31.31305 -64.20831 1621 ft 14 kts 179°
2026-04-22 22:32 -31.31414 -64.20830 1619 ft 10 kts 186°
2026-04-22 22:33 -31.31455 -64.20858 1619 ft 8 kts 232°
2026-04-22 22:33 -31.31463 -64.20929 1616 ft 7 kts 270°
2026-04-22 22:33 -31.31466 -64.21004 1615 ft 11 kts 267°
2026-04-22 22:33 -31.31476 -64.21077 1621 ft 7 kts 261°
2026-04-22 22:34 -31.31480 -64.21115 1617 ft 3 kts 263°
2026-04-22 22:34 -31.31484 -64.21155 1617 ft 1 kts 263°
2026-04-22 22:34 -31.31485 -64.21167 1615 ft 0 kts 264°
2026-04-22 22:35 -31.31486 -64.21173 1615 ft 1 kts 262°
2026-04-22 22:35 -31.31487 -64.21179 1615 ft 0 kts 262°